Location: Christian Reformed Church
(43.0975°N, 93.8113°W)
Time: 21:34:41
(UTC+00:00)

UNK - Pass Details

Date: 13 December 2025
Orbit: 654 x 673 km, 98.4° (Epoch: 12 January)

Event Time Altitude Azimuth Distance (km) Brightness Sun altitude
Rises 23:26:22 0° 14° (NNE) 3,017 6.7 -8.2°
Reaches altitude 10° 23:28:37 10° 16° (NNE) 2,096 5.9 -8.6°
Maximum altitude 23:33:12 78° 102° (ESE) 683 3.7 -9.4°
Drops below altitude 10° 23:37:43 10° 190° (S) 2,068 6.7 -10.1°
Sets 23:39:55 0° 192° (SSW) 2,972 7.6 -10.5°
